STARLINK-1752, 46338

Orbit data source: Space-Track

STARLINK-1752, 46338 is a payload satellite owned by SpaceX/Seattle (US) in LEO that was launched on Thu, 03 Sep 2020 UTC via an FALCON 9 launch vehicle from the Air Force Eastern Test Range (AFETR). Payloads include a variety of satellites, spacecraft, and rockets equipped with specific instruments for various scientific and technological missions. These include communications satellites like Starlink; space stations such as the ISS; scientific satellites like the Hubble; Earth observation satellites from companies like Planet Labs, Umbra, and HawkEye 360; GPS; miniature CubeSats for education and research; and military/defense satellites.

Loading next visibility...
STARLINK-1752 details
Identifier
46338, 2020-062P
Orbit
LEO
Last TLE update16 hours ago
Origin
Flag of USSpaceX/Seattle (US)
ManufacturerSpaceX/Seattle
MissionOperational Commercial Communications
Bus & MotorSTARLINK, Unknown motor
Mass260 kg wet, ~248 kg dry
Launch date (UTC)
2020-09-03 (4 years ago)
Launch vehicle
FALCON 9
Launch site
Air Force Eastern Test Range (AFETR)
Object type
Payload
Rocket body
Debris
Shape & HBRBox + 1 Pan, 8.86 m
Radar Cross Section13.562 m², Large (>1 m²)

Expand to show TLE details & history

TLE from 16 hours ago
0 STARLINK-1752
1 46338U 20062P   24347.73233739  .00007377  00000-0  51364-3 0  9997
2 46338  53.0539 245.5334 0002008  91.9945 268.1274 15.06399210236180
Epoch: 2024-12-12T17:34Z
Definitive object data (Epoch: 2024-12-12T17:34:33.95Z)
Latitude-0.00002°
Longitude-100.01652°
Altitude548.139 km
Speed7.589 km/s
True Right ascension16h 22m 08s
True Declination0° 00' 00"
Sunlit
Object was in daylight at TLE epoch
Visualization TLE readout
Latitude22.18062°
Longitude-85.26438°
Altitude547.265 km
Speed7.592 km/s
Apparent Right ascension18h 32m 31s
Apparent Declination-7° 54' 25"
Sunlit
Object is in daylight
Visualization observer readout
Local Sidereal Time08:07:11
Azimuth39.833° NE
Elevation-51.636°
Doppler factor1
Orbital elements
Apogee altitude548.875 km
Perigee altitude546.094 km
Semi-major axis6,925.622 km
Eccentricity0.0002008
Inclination53.0539°
RAAN245.5334°
Arg. of periapsis91.9945°
True anomaly268.1044°
Mean anomaly268.1274°
Eccentric anomaly268.1159°
Mean motion3.76578 °/min
BSTAR0.00051364
Orbital period95.6 mins
Loading maneuver chart data...
Loading historical data...
Loading historical data...
Loading historical data...
Loading historical data...
Loading historical data...
Loading historical data...
Loading historical data...

STARLINK-1752 Visibility forecast

Observer location: undefined°, undefined

Span
Click to sort rows by Start time (UTC) header in descending order
Start Az.
Max El. time (UTC)
Max El. Az.
Max El.
End time (UTC)
End Az.
6 mins2024-12-13 19:12:23.428Z190.348° SSW2024-12-13 19:15:23.428Z133.06° SE27.73°2024-12-13 19:18:23.428Z73.466° E
6 mins2024-12-13 20:52:23.428Z268.301° W2024-12-13 20:54:23.428Z309.679° NW31.033°2024-12-13 20:58:23.428Z36.348° NE
6 mins2024-12-14 01:54:23.428Z334.684° NNW2024-12-14 01:56:23.428Z19.453° NNE30.402°2024-12-14 02:00:23.428Z98.759° ESE
5 mins2024-12-14 03:34:23.428Z274.722° WNW2024-12-14 03:36:23.428Z221.41° SW29.228°2024-12-14 03:39:23.428Z165.967° S
|